Weather History for Pian Rosa, Italy

Change the Weather History Date:

Wednesday, March 20, 2013

  Actual Average Record
Temperature  
Mean Temperature 8 °F -  
Max Temperature 14 °F 21 °F 27 °F (2014)
Min Temperature 3 °F 10 °F -7 °F (2008)
Degree Days  
Heating Degree Days 56    
Moisture  
Dew Point -1 °F    
Average Humidity 67    
Maximum Humidity 85    
Minimum Humidity 27    
Precipitation  
Precipitation 0.00 in - - ()
Sea Level Pressure  
Sea Level Pressure 29.52 in    
Wind  
Wind Speed 12 mph ()    
Max Wind Speed 24 mph    
Max Gust Speed -    
Visibility 4.3 miles    
Events Fog , Snow    
Averages and records for this station are not official NWS values.
T = Trace of Precipitation, MM = Missing Value Source: Averaged Metar Reports

Daily Weather History Graph

Daily Weather History Graph

Search for Another Location

Airport:

Trip Planner

Search our weather history database for the weather conditions in past years. The results will help you decide how hot, cold, wet, or windy it might be!

Date:

Astronomy

Mar. 20, 2013 Rise Set
Actual Time 6:32 AM CET 6:41 PM CET
Civil Twilight 6:02 AM CET 7:11 PM CET
Nautical Twilight 5:27 AM CET 7:46 PM CET
Astronomical Twilight 4:51 AM CET 8:22 PM CET
Moon 11:45 AM CET (3/20) 2:17 AM CET (3/20)
Length of Visible Light 13h 09m
Length of Day
12h 09m
First Quarter, 57% of the Moon is Illuminated
Mar 20
First Quarter
Mar 27
Full
Apr 3
Last Quarter
Apr 10
New
Apr 18
First Quarter

Hourly Weather History & Observations

Time (CET) Temp. Windchill Dew Point Humidity Pressure Visibility Wind Dir Wind Speed Gust Speed Precip Events Conditions
12:55 AM 6.8 °F -9.3 °F -11.2 °F 44% 29.47 in - South 12.7 mph - N/A   Clear
1:00 AM 7 °F - -11 °F 27%  in 6 mi South 12.7 mph - -   Clear
1:55 AM 6.8 °F -10.7 °F -7.6 °F 52% 29.47 in 6.2 mi South 15.0 mph - N/A   Mostly Cloudy
2:55 AM 8.6 °F -8.3 °F -2.2 °F 62% 29.44 in 6.2 mi South 15.0 mph - N/A   Mostly Cloudy
3:55 AM 8.6 °F -7.7 °F -2.2 °F 62% 29.44 in 6.2 mi South 13.8 mph - N/A   Mostly Cloudy
4:00 AM 9 °F - -1 °F 48%  in 6 mi South 13.8 mph - -   Mostly Cloudy
4:55 AM 10.4 °F -6.0 °F -4.0 °F 52% 29.44 in 6.2 mi South 15.0 mph - N/A   Mostly Cloudy
5:55 AM 8.6 °F -6.3 °F -4.0 °F 57% 29.44 in 6.2 mi South 11.5 mph - N/A   Mostly Cloudy
6:55 AM 8.6 °F -4.7 °F -0.4 °F 67% 29.47 in 6.2 mi South 9.2 mph - N/A   Mostly Cloudy
7:00 AM 8 °F - -1 °F 54%  in 6 mi South 9.2 mph - -   Mostly Cloudy
7:55 AM 6.8 °F -9.3 °F -0.4 °F 72% 29.47 in 6.2 mi SSW 12.7 mph - N/A   Mostly Cloudy
8:55 AM 8.6 °F -6.3 °F 3.2 °F 79% 29.47 in 6.2 mi SSW 11.5 mph - N/A   Partly Cloudy
9:55 AM 10.4 °F -8.2 °F 3.2 °F 73% 29.47 in 6.2 mi SSW 19.6 mph - N/A   Scattered Clouds
10:00 AM 10 °F - 3 °F 64%  in 19 mi SSW 19.6 mph - -   Partly Cloudy
10:55 AM 10.4 °F -9.9 °F 5.0 °F 79% 29.50 in 6.2 mi SSW 24.2 mph - N/A   Scattered Clouds
11:55 AM 10.4 °F -7.7 °F 6.8 °F 85% 29.53 in 6.2 mi SSW 18.4 mph - N/A   Scattered Clouds
12:55 PM 12.2 °F -7.5 °F 6.8 °F 79% 29.50 in 0.5 mi SSW 24.2 mph - N/A Fog Light Freezing Fog
1:00 PM 13 °F - 8 °F 69%  in 0 mi SSW 24.2 mph - - Fog Heavy Fog
1:55 PM 12.2 °F 0.7 °F 8.6 °F 85% 29.53 in 0.5 mi SSW 8.1 mph - N/A Fog Light Freezing Fog
2:55 PM 14.0 °F 8.2 °F 8.6 °F 79% 29.53 in 0.5 mi Variable 3.5 mph - N/A Fog Light Freezing Fog
3:55 PM 10.4 °F -0.4 °F 5.0 °F 79% 29.56 in 0.5 mi West 6.9 mph - N/A Fog Light Freezing Fog
4:55 PM 10.4 °F 4.0 °F 3.2 °F 73% 29.56 in 0.5 mi ENE 3.5 mph - N/A Fog Light Freezing Fog
5:55 PM 6.8 °F -5.9 °F 1.4 °F 79% 29.59 in 3.7 mi West 8.1 mph - N/A   Scattered Clouds
6:55 PM 5.0 °F -6.9 °F -2.2 °F 72% 29.59 in 6.2 mi NW 6.9 mph - N/A   Scattered Clouds
7:00 PM 6 °F - -3 °F 53%  in 6 mi NW 6.9 mph - -   Partly Cloudy
7:55 PM 3.2 °F -13.1 °F -4.0 °F 72% 29.59 in 6.2 mi North 11.5 mph - N/A   Partly Cloudy
8:55 PM 3.2 °F -17.6 °F -2.2 °F 78% 29.62 in 0.1 mi West 19.6 mph - N/A Fog , Snow Light Snow
9:55 PM 3.2 °F -17.6 °F -0.4 °F 85% 29.59 in 0.1 mi NNE 19.6 mph - N/A Fog , Snow Light Snow
10:00 PM 3 °F - -1 °F 75%  in 0 mi NNE 19.6 mph - - Snow Light Snow
10:55 PM 3.2 °F -16.5 °F -22.0 °F 30% 29.59 in 0.2 mi North 17.3 mph - N/A Fog , Snow Light Snow
11:55 PM 3.2 °F -17.1 °F -0.4 °F 85% 29.59 in 0.1 mi NNE 18.4 mph - N/A Fog , Snow Light Snow